Year,Month,Day,Hour,Minute,Value (Times are PST for windgust in km/hr)
2010,07,15,00,00,1.60
2010,07,15,00,01,4.80
2010,07,15,00,02,6.40
2010,07,15,00,03,4.80
2010,07,15,00,04,8.10
2010,07,15,00,05,1.60
2010,07,15,00,06,1.60
2010,07,15,00,07,3.20
2010,07,15,00,09,3.20
2010,07,15,00,10,4.80
2010,07,15,00,12,6.40
2010,07,15,00,13,4.80
2010,07,15,00,14,8.10
2010,07,15,00,15,6.40
2010,07,15,00,16,1.60
2010,07,15,00,17,1.60
2010,07,15,00,18,6.40
2010,07,15,00,19,6.40
2010,07,15,00,20,11.30
2010,07,15,00,21,4.80
2010,07,15,00,22,3.20
2010,07,15,00,23,4.80
2010,07,15,00,24,6.40
2010,07,15,00,25,6.40
2010,07,15,00,26,1.60
2010,07,15,00,27,3.20
2010,07,15,00,28,8.10
2010,07,15,00,29,3.20
2010,07,15,00,30,1.60
2010,07,15,00,32,1.60
2010,07,15,00,34,3.20
2010,07,15,00,35,9.60
2010,07,15,00,36,1.60
2010,07,15,00,37,1.60
2010,07,15,00,39,8.10
2010,07,15,00,40,4.80
2010,07,15,00,41,1.60
2010,07,15,00,43,1.60
2010,07,15,00,44,9.60
2010,07,15,00,45,3.20
2010,07,15,00,46,1.60
2010,07,15,00,50,1.60
2010,07,15,00,51,1.60
2010,07,15,00,52,1.60
2010,07,15,00,53,3.20
2010,07,15,00,54,1.60
2010,07,15,00,55,4.80
2010,07,15,00,56,4.80
2010,07,15,00,57,6.40
2010,07,15,00,58,8.10
2010,07,15,00,59,8.10
2010,07,15,01,00,6.40
2010,07,15,01,01,8.10
2010,07,15,01,02,9.60
2010,07,15,01,03,8.10
2010,07,15,01,04,1.60
2010,07,15,01,05,3.20
2010,07,15,01,06,1.60
2010,07,15,01,07,1.60
2010,07,15,01,08,1.60
2010,07,15,01,09,1.60
2010,07,15,01,10,1.60
2010,07,15,01,11,8.10
2010,07,15,01,12,3.20
2010,07,15,01,13,1.60
2010,07,15,01,14,9.60
2010,07,15,01,15,4.80
2010,07,15,01,16,4.80
2010,07,15,01,17,4.80
2010,07,15,01,18,3.20
2010,07,15,01,19,4.80
2010,07,15,01,20,6.40
2010,07,15,01,21,4.80
2010,07,15,01,22,6.40
2010,07,15,01,23,8.10
2010,07,15,01,24,11.30
2010,07,15,01,25,3.20
2010,07,15,01,26,6.40
2010,07,15,01,27,1.60
2010,07,15,01,28,3.20
2010,07,15,01,29,6.40
2010,07,15,01,30,6.40
2010,07,15,01,34,4.80
2010,07,15,01,35,3.20
2010,07,15,01,36,3.20
2010,07,15,01,37,4.80
2010,07,15,01,38,1.60
2010,07,15,01,39,1.60
2010,07,15,01,40,6.40
2010,07,15,01,41,4.80
2010,07,15,01,42,4.80
2010,07,15,01,43,4.80
2010,07,15,01,44,3.20
2010,07,15,01,45,6.40
2010,07,15,01,46,6.40
2010,07,15,01,49,1.60
2010,07,15,01,51,1.60
2010,07,15,01,54,9.60
2010,07,15,01,55,3.20
2010,07,15,01,56,3.20
2010,07,15,01,57,1.60
2010,07,15,01,58,3.20
2010,07,15,01,59,1.60
2010,07,15,02,00,1.60
2010,07,15,02,01,1.60
2010,07,15,02,02,1.60
2010,07,15,02,03,3.20
2010,07,15,02,04,3.20
2010,07,15,02,05,4.80
2010,07,15,02,06,1.60
2010,07,15,02,07,4.80
2010,07,15,02,09,3.20
2010,07,15,02,10,1.60
2010,07,15,02,11,3.20
2010,07,15,02,12,4.80
2010,07,15,02,13,1.60
2010,07,15,02,14,6.40
2010,07,15,02,15,3.20
2010,07,15,02,16,1.60
2010,07,15,02,17,4.80
2010,07,15,02,18,1.60
2010,07,15,02,20,1.60
2010,07,15,02,22,1.60
2010,07,15,02,23,1.60
2010,07,15,02,24,1.60
2010,07,15,02,25,1.60
2010,07,15,02,26,1.60
2010,07,15,02,27,3.20
2010,07,15,02,29,3.20
2010,07,15,02,30,1.60
2010,07,15,02,32,1.60
2010,07,15,02,33,1.60
2010,07,15,02,34,4.80
2010,07,15,02,35,3.20
2010,07,15,02,37,1.60
2010,07,15,02,39,1.60
2010,07,15,02,40,1.60
2010,07,15,02,41,1.60
2010,07,15,02,42,1.60
2010,07,15,02,43,4.80
2010,07,15,02,44,4.80
2010,07,15,02,47,3.20
2010,07,15,02,48,1.60
2010,07,15,02,50,1.60
2010,07,15,02,52,3.20
2010,07,15,02,58,1.60
2010,07,15,03,00,1.60
2010,07,15,03,01,3.20
2010,07,15,03,02,4.80
2010,07,15,03,03,4.80
2010,07,15,03,04,6.40
2010,07,15,03,07,1.60
2010,07,15,03,08,1.60
2010,07,15,03,09,1.60
2010,07,15,03,10,1.60
2010,07,15,03,11,1.60
2010,07,15,03,15,3.20
2010,07,15,03,16,1.60
2010,07,15,03,19,1.60
2010,07,15,03,20,1.60
2010,07,15,03,21,1.60
2010,07,15,03,23,3.20
2010,07,15,03,24,3.20
2010,07,15,03,25,4.80
2010,07,15,03,26,3.20
2010,07,15,03,27,8.10
2010,07,15,03,28,8.10
2010,07,15,03,29,1.60
2010,07,15,03,30,1.60
2010,07,15,03,31,1.60
2010,07,15,03,32,1.60
2010,07,15,03,39,1.60
2010,07,15,03,41,1.60
2010,07,15,03,42,1.60
2010,07,15,03,43,3.20
2010,07,15,03,44,1.60
2010,07,15,03,45,3.20
2010,07,15,03,46,1.60
2010,07,15,03,47,1.60
2010,07,15,03,48,1.60
2010,07,15,03,49,1.60
2010,07,15,03,51,3.20
2010,07,15,03,52,1.60
2010,07,15,03,54,3.20
2010,07,15,03,56,3.20
2010,07,15,04,07,1.60
2010,07,15,05,01,1.60
2010,07,15,05,02,1.60
2010,07,15,05,03,1.60
2010,07,15,05,04,1.60
2010,07,15,05,08,1.60
2010,07,15,06,24,1.60
2010,07,15,06,25,1.60
2010,07,15,06,29,1.60
2010,07,15,06,30,1.60
2010,07,15,06,31,1.60
2010,07,15,06,32,1.60
2010,07,15,06,33,3.20
2010,07,15,06,34,1.60
2010,07,15,06,36,1.60
2010,07,15,06,38,1.60
2010,07,15,06,41,1.60
2010,07,15,06,42,1.60
2010,07,15,06,43,1.60
2010,07,15,06,44,1.60
2010,07,15,06,47,1.60
2010,07,15,06,48,1.60
2010,07,15,06,49,1.60
2010,07,15,06,50,1.60
2010,07,15,06,51,1.60
2010,07,15,06,52,1.60
2010,07,15,07,02,1.60
2010,07,15,07,03,1.60
2010,07,15,07,15,1.60
2010,07,15,07,16,1.60
2010,07,15,07,18,3.20
2010,07,15,07,20,1.60
2010,07,15,07,21,1.60
2010,07,15,07,22,1.60
2010,07,15,07,23,1.60
2010,07,15,07,24,1.60
2010,07,15,07,25,1.60
2010,07,15,07,26,1.60
2010,07,15,07,27,4.80
2010,07,15,07,28,8.10
2010,07,15,07,29,4.80
2010,07,15,07,30,4.80
2010,07,15,07,31,4.80
2010,07,15,07,32,3.20
2010,07,15,07,33,3.20
2010,07,15,07,34,6.40
2010,07,15,07,35,6.40
2010,07,15,07,36,4.80
2010,07,15,07,37,3.20
2010,07,15,07,38,1.60
2010,07,15,07,39,1.60
2010,07,15,07,40,3.20
2010,07,15,07,41,3.20
2010,07,15,07,42,3.20
2010,07,15,07,43,1.60
2010,07,15,07,44,8.10
2010,07,15,07,45,9.60
2010,07,15,07,46,3.20
2010,07,15,07,47,4.80
2010,07,15,07,48,4.80
2010,07,15,07,49,8.10
2010,07,15,07,50,3.20
2010,07,15,07,51,3.20
2010,07,15,07,52,8.10
2010,07,15,07,53,8.10
2010,07,15,07,54,6.40
2010,07,15,07,55,8.10
2010,07,15,07,56,6.40
2010,07,15,07,57,6.40
2010,07,15,07,58,6.40
2010,07,15,07,59,4.80
2010,07,15,08,00,4.80
2010,07,15,08,01,6.40
2010,07,15,08,02,4.80
2010,07,15,08,03,3.20
2010,07,15,08,04,3.20
2010,07,15,08,05,4.80
2010,07,15,08,06,4.80
2010,07,15,08,07,4.80
2010,07,15,08,08,8.10
2010,07,15,08,09,6.40
2010,07,15,08,10,6.40
2010,07,15,08,11,1.60
2010,07,15,08,12,1.60
2010,07,15,08,13,3.20
2010,07,15,08,14,1.60
2010,07,15,08,15,1.60
2010,07,15,08,16,4.80
2010,07,15,08,17,6.40
2010,07,15,08,18,1.60
2010,07,15,08,19,3.20
2010,07,15,08,20,6.40
2010,07,15,08,21,6.40
2010,07,15,08,22,1.60
2010,07,15,08,23,6.40
2010,07,15,08,24,3.20
2010,07,15,08,25,4.80
2010,07,15,08,26,4.80
2010,07,15,08,27,8.10
2010,07,15,08,28,6.40
2010,07,15,08,29,1.60
2010,07,15,08,30,1.60
2010,07,15,08,31,4.80
2010,07,15,08,32,8.10
2010,07,15,08,33,4.80
2010,07,15,08,34,3.20
2010,07,15,08,35,4.80
2010,07,15,08,36,8.10
2010,07,15,08,37,8.10
2010,07,15,08,38,4.80
2010,07,15,08,39,6.40
2010,07,15,08,40,4.80
2010,07,15,08,41,6.40
2010,07,15,08,42,4.80
2010,07,15,08,43,1.60
2010,07,15,08,44,8.10
2010,07,15,08,45,4.80
2010,07,15,08,46,3.20
2010,07,15,08,47,9.60
2010,07,15,08,48,8.10
2010,07,15,08,49,4.80
2010,07,15,08,50,4.80
2010,07,15,08,51,4.80
2010,07,15,08,52,8.10
2010,07,15,08,53,6.40
2010,07,15,08,54,3.20
2010,07,15,08,55,6.40
2010,07,15,08,56,4.80
2010,07,15,08,57,6.40
2010,07,15,08,58,9.60
2010,07,15,08,59,9.60
2010,07,15,09,00,3.20
2010,07,15,09,01,3.20
2010,07,15,09,02,6.40
2010,07,15,09,03,9.60
2010,07,15,09,04,6.40
2010,07,15,09,05,6.40
2010,07,15,09,06,9.60
2010,07,15,09,07,9.60
2010,07,15,09,08,11.30
2010,07,15,09,09,9.60
2010,07,15,09,10,9.60
2010,07,15,09,11,9.60
2010,07,15,09,12,11.30
2010,07,15,09,13,9.60
2010,07,15,09,14,4.80
2010,07,15,09,15,1.60
2010,07,15,09,16,3.20
2010,07,15,09,17,3.20
2010,07,15,09,18,6.40
2010,07,15,09,19,9.60
2010,07,15,09,20,8.10
2010,07,15,09,21,9.60
2010,07,15,09,22,4.80
2010,07,15,09,23,6.40
2010,07,15,09,24,6.40
2010,07,15,09,25,9.60
2010,07,15,09,26,4.80
2010,07,15,09,27,6.40
2010,07,15,09,28,11.30
2010,07,15,09,29,14.50
2010,07,15,09,30,14.50
2010,07,15,09,31,9.60
2010,07,15,09,32,9.60
2010,07,15,09,33,8.10
2010,07,15,09,34,6.40
2010,07,15,09,35,9.60
2010,07,15,09,36,8.10
2010,07,15,09,37,11.30
2010,07,15,09,38,11.30
2010,07,15,09,39,11.30
2010,07,15,09,40,9.60
2010,07,15,09,41,9.60
2010,07,15,09,42,6.40
2010,07,15,09,43,8.10
2010,07,15,09,44,11.30
2010,07,15,09,45,8.10
2010,07,15,09,46,4.80
2010,07,15,09,47,8.10
2010,07,15,09,48,6.40
2010,07,15,09,49,9.60
2010,07,15,09,50,11.30
2010,07,15,09,51,9.60
2010,07,15,09,52,9.60
2010,07,15,09,53,6.40
2010,07,15,09,54,4.80
2010,07,15,09,55,3.20
2010,07,15,09,56,9.60
2010,07,15,09,57,11.30
2010,07,15,09,58,12.90
2010,07,15,09,59,11.30
2010,07,15,10,00,8.10
2010,07,15,10,01,9.60
2010,07,15,10,02,6.40
2010,07,15,10,03,6.40
2010,07,15,10,04,6.40
2010,07,15,10,05,4.80
2010,07,15,10,06,4.80
2010,07,15,10,07,8.10
2010,07,15,10,08,9.60
2010,07,15,10,09,8.10
2010,07,15,10,10,4.80
2010,07,15,10,11,8.10
2010,07,15,10,12,8.10
2010,07,15,10,13,9.60
2010,07,15,10,14,9.60
2010,07,15,10,15,11.30
2010,07,15,10,16,9.60
2010,07,15,10,17,6.40
2010,07,15,10,18,9.60
2010,07,15,10,19,9.60
2010,07,15,10,20,8.10
2010,07,15,10,21,8.10
2010,07,15,10,22,9.60
2010,07,15,10,23,11.30
2010,07,15,10,24,9.60
2010,07,15,10,25,8.10
2010,07,15,10,26,9.60
2010,07,15,10,27,6.40
2010,07,15,10,28,4.80
2010,07,15,10,29,4.80
2010,07,15,10,30,6.40
2010,07,15,10,31,8.10
2010,07,15,10,32,6.40
2010,07,15,10,33,4.80
2010,07,15,10,34,4.80
2010,07,15,10,35,6.40
2010,07,15,10,36,6.40
2010,07,15,10,37,11.30
2010,07,15,10,38,11.30
2010,07,15,10,39,9.60
2010,07,15,10,40,11.30
2010,07,15,10,41,11.30
2010,07,15,10,42,9.60
2010,07,15,10,43,9.60
2010,07,15,10,44,8.10
2010,07,15,10,45,4.80
2010,07,15,10,46,12.90
2010,07,15,10,47,8.10
2010,07,15,10,48,12.90
2010,07,15,10,49,14.50
2010,07,15,10,50,11.30
2010,07,15,10,51,11.30
2010,07,15,10,52,6.40
2010,07,15,10,53,6.40
2010,07,15,10,54,11.30
2010,07,15,10,55,14.50
2010,07,15,10,56,11.30
2010,07,15,10,57,11.30
2010,07,15,10,58,11.30
2010,07,15,10,59,11.30
2010,07,15,11,00,11.30
2010,07,15,11,01,12.90
2010,07,15,11,02,11.30
2010,07,15,11,03,12.90
2010,07,15,11,04,9.60
2010,07,15,11,05,11.30
2010,07,15,11,06,9.60
2010,07,15,11,07,12.90
2010,07,15,11,08,4.80
2010,07,15,11,09,9.60
2010,07,15,11,10,8.10
2010,07,15,11,11,9.60
2010,07,15,11,12,6.40
2010,07,15,11,13,14.50
2010,07,15,11,14,11.30
2010,07,15,11,15,12.90
2010,07,15,11,16,14.50
2010,07,15,11,17,4.80
2010,07,15,11,18,3.20
2010,07,15,11,19,8.10
2010,07,15,11,20,3.20
2010,07,15,11,21,9.60
2010,07,15,11,22,8.10
2010,07,15,11,23,8.10
2010,07,15,11,24,9.60
2010,07,15,11,25,9.60
2010,07,15,11,26,12.90
2010,07,15,11,27,9.60
2010,07,15,11,28,11.30
2010,07,15,11,29,11.30
2010,07,15,11,30,8.10
2010,07,15,11,31,6.40
2010,07,15,11,32,3.20
2010,07,15,11,33,8.10
2010,07,15,11,34,9.60
2010,07,15,11,35,6.40
2010,07,15,11,36,9.60
2010,07,15,11,37,8.10
2010,07,15,11,38,11.30
2010,07,15,11,39,11.30
2010,07,15,11,40,9.60
2010,07,15,11,41,11.30
2010,07,15,11,42,11.30
2010,07,15,11,43,8.10
2010,07,15,11,44,8.10
2010,07,15,11,45,11.30
2010,07,15,11,46,11.30
2010,07,15,11,47,11.30
2010,07,15,11,48,8.10
2010,07,15,11,49,8.10
2010,07,15,11,50,9.60
2010,07,15,11,51,8.10
2010,07,15,11,52,9.60
2010,07,15,11,53,11.30
2010,07,15,11,54,12.90
2010,07,15,11,55,12.90
2010,07,15,11,56,11.30
2010,07,15,11,57,6.40
2010,07,15,11,58,6.40
2010,07,15,11,59,11.30
2010,07,15,12,00,9.60
2010,07,15,12,01,6.40
2010,07,15,12,02,16.10
2010,07,15,12,03,9.60
2010,07,15,12,04,11.30
2010,07,15,12,05,9.60
2010,07,15,12,06,8.10
2010,07,15,12,07,11.30
2010,07,15,12,08,9.60
2010,07,15,12,09,6.40
2010,07,15,12,10,11.30
2010,07,15,12,11,9.60
2010,07,15,12,12,8.10
2010,07,15,12,13,11.30
2010,07,15,12,14,6.40
2010,07,15,12,15,6.40
2010,07,15,12,16,8.10
2010,07,15,12,17,9.60
2010,07,15,12,18,14.50
2010,07,15,12,19,12.90
2010,07,15,12,20,6.40
2010,07,15,12,21,8.10
2010,07,15,12,22,9.60
2010,07,15,12,23,8.10
2010,07,15,12,24,6.40
2010,07,15,12,25,8.10
2010,07,15,12,26,11.30
2010,07,15,12,27,11.30
2010,07,15,12,28,9.60
2010,07,15,12,29,14.50
2010,07,15,12,30,8.10
2010,07,15,12,31,14.50
2010,07,15,12,32,14.50
2010,07,15,12,33,4.80
2010,07,15,12,34,6.40
2010,07,15,12,35,9.60
2010,07,15,12,36,9.60
2010,07,15,12,37,11.30
2010,07,15,12,38,8.10
2010,07,15,12,39,9.60
2010,07,15,12,40,8.10
2010,07,15,12,41,6.40
2010,07,15,12,42,8.10
2010,07,15,12,43,3.20
2010,07,15,12,44,3.20
2010,07,15,12,45,14.50
2010,07,15,12,46,11.30
2010,07,15,12,47,14.50
2010,07,15,12,48,11.30
2010,07,15,12,49,9.60
2010,07,15,12,50,11.30
2010,07,15,12,51,8.10
2010,07,15,12,52,8.10
2010,07,15,12,53,9.60
2010,07,15,12,54,6.40
2010,07,15,12,55,6.40
2010,07,15,12,56,9.60
2010,07,15,12,57,11.30
2010,07,15,12,58,11.30
2010,07,15,12,59,11.30
2010,07,15,13,00,8.10
2010,07,15,13,01,8.10
2010,07,15,13,02,6.40
2010,07,15,13,03,11.30
2010,07,15,13,04,4.80
2010,07,15,13,05,8.10
2010,07,15,13,06,8.10
2010,07,15,13,07,11.30
2010,07,15,13,08,9.60
2010,07,15,13,09,11.30
2010,07,15,13,10,9.60
2010,07,15,13,11,14.50
2010,07,15,13,12,12.90
2010,07,15,13,13,16.10
2010,07,15,13,14,12.90
2010,07,15,13,15,8.10
2010,07,15,13,16,8.10
2010,07,15,13,17,8.10
2010,07,15,13,18,14.50
2010,07,15,13,19,9.60
2010,07,15,13,20,8.10
2010,07,15,13,21,8.10
2010,07,15,13,22,6.40
2010,07,15,13,23,9.60
2010,07,15,13,24,9.60
2010,07,15,13,25,9.60
2010,07,15,13,26,8.10
2010,07,15,13,27,9.60
2010,07,15,13,28,9.60
2010,07,15,13,29,9.60
2010,07,15,13,30,11.30
2010,07,15,13,31,9.60
2010,07,15,13,32,9.60
2010,07,15,13,33,6.40
2010,07,15,13,34,9.60
2010,07,15,13,35,6.40
2010,07,15,13,36,11.30
2010,07,15,13,37,11.30
2010,07,15,13,38,14.50
2010,07,15,13,39,9.60
2010,07,15,13,40,4.80
2010,07,15,13,41,11.30
2010,07,15,13,42,8.10
2010,07,15,13,43,6.40
2010,07,15,13,44,14.50
2010,07,15,13,45,14.50
2010,07,15,13,46,14.50
2010,07,15,13,47,6.40
2010,07,15,13,48,14.50
2010,07,15,13,49,12.90
2010,07,15,13,50,12.90
2010,07,15,13,51,11.30
2010,07,15,13,52,9.60
2010,07,15,13,53,11.30
2010,07,15,13,54,11.30
2010,07,15,13,55,11.30
2010,07,15,13,56,6.40
2010,07,15,13,57,12.90
2010,07,15,13,58,11.30
2010,07,15,13,59,11.30
2010,07,15,14,00,11.30
2010,07,15,14,01,9.60
2010,07,15,14,02,8.10
2010,07,15,14,03,6.40
2010,07,15,14,04,9.60
2010,07,15,14,05,14.50
2010,07,15,14,06,11.30
2010,07,15,14,07,14.50
2010,07,15,14,08,8.10
2010,07,15,14,09,9.60
2010,07,15,14,10,16.10
2010,07,15,14,11,9.60
2010,07,15,14,12,6.40
2010,07,15,14,13,11.30
2010,07,15,14,14,11.30
2010,07,15,14,15,14.50
2010,07,15,14,16,11.30
2010,07,15,14,17,3.20
2010,07,15,14,18,9.60
2010,07,15,14,19,9.60
2010,07,15,14,20,9.60
2010,07,15,14,21,9.60
2010,07,15,14,22,9.60
2010,07,15,14,23,11.30
2010,07,15,14,24,14.50
2010,07,15,14,25,14.50
2010,07,15,14,26,11.30
2010,07,15,14,27,17.70
2010,07,15,14,28,11.30
2010,07,15,14,29,12.90
2010,07,15,14,30,14.50
2010,07,15,14,31,14.50
2010,07,15,14,32,6.40
2010,07,15,14,33,9.60
2010,07,15,14,34,6.40
2010,07,15,14,35,11.30
2010,07,15,14,36,14.50
2010,07,15,14,37,12.90
2010,07,15,14,38,16.10
2010,07,15,14,39,11.30
2010,07,15,14,40,16.10
2010,07,15,14,41,14.50
2010,07,15,14,42,19.30
2010,07,15,14,43,16.10
2010,07,15,14,44,14.50
2010,07,15,14,45,11.30
2010,07,15,14,46,17.70
2010,07,15,14,47,16.10
2010,07,15,14,48,17.70
2010,07,15,14,49,12.90
2010,07,15,14,50,8.10
2010,07,15,14,51,19.30
2010,07,15,14,52,17.70
2010,07,15,14,53,14.50
2010,07,15,14,54,16.10
2010,07,15,14,55,11.30
2010,07,15,14,56,16.10
2010,07,15,14,57,14.50
2010,07,15,14,58,14.50
2010,07,15,14,59,19.30
2010,07,15,15,00,17.70
2010,07,15,15,01,24.20
2010,07,15,15,02,20.90
2010,07,15,15,03,24.20
2010,07,15,15,04,22.50
2010,07,15,15,05,20.90
2010,07,15,15,06,22.50
2010,07,15,15,07,22.50
2010,07,15,15,08,22.50
2010,07,15,15,09,24.20
2010,07,15,15,10,24.20
2010,07,15,15,11,22.50
2010,07,15,15,12,25.70
2010,07,15,15,13,20.90
2010,07,15,15,14,24.20
2010,07,15,15,15,24.20
2010,07,15,15,16,22.50
2010,07,15,15,17,19.30
2010,07,15,15,18,22.50
2010,07,15,15,19,20.90
2010,07,15,15,20,20.90
2010,07,15,15,21,22.50
2010,07,15,15,22,20.90
2010,07,15,15,23,19.30
2010,07,15,15,24,20.90
2010,07,15,15,25,19.30
2010,07,15,15,26,24.20
2010,07,15,15,27,20.90
2010,07,15,15,28,17.70
2010,07,15,15,29,19.30
2010,07,15,15,30,19.30
2010,07,15,15,31,20.90
2010,07,15,15,32,16.10
2010,07,15,15,33,17.70
2010,07,15,15,34,16.10
2010,07,15,15,35,14.50
2010,07,15,15,36,14.50
2010,07,15,15,37,16.10
2010,07,15,15,38,9.60
2010,07,15,15,39,9.60
2010,07,15,15,40,16.10
2010,07,15,15,41,17.70
2010,07,15,15,42,16.10
2010,07,15,15,43,11.30
2010,07,15,15,44,20.90
2010,07,15,15,45,20.90
2010,07,15,15,46,19.30
2010,07,15,15,47,19.30
2010,07,15,15,48,19.30
2010,07,15,15,49,20.90
2010,07,15,15,50,19.30
2010,07,15,15,51,19.30
2010,07,15,15,52,20.90
2010,07,15,15,53,20.90
2010,07,15,15,54,19.30
2010,07,15,15,55,20.90
2010,07,15,15,56,20.90
2010,07,15,15,57,19.30
2010,07,15,15,58,19.30
2010,07,15,15,59,11.30
2010,07,15,16,00,14.50
2010,07,15,16,01,16.10
2010,07,15,16,02,14.50
2010,07,15,16,03,16.10
2010,07,15,16,04,16.10
2010,07,15,16,05,14.50
2010,07,15,16,06,16.10
2010,07,15,16,07,19.30
2010,07,15,16,08,17.70
2010,07,15,16,09,20.90
2010,07,15,16,10,20.90
2010,07,15,16,11,19.30
2010,07,15,16,12,14.50
2010,07,15,16,13,16.10
2010,07,15,16,14,17.70
2010,07,15,16,15,20.90
2010,07,15,16,16,17.70
2010,07,15,16,17,19.30
2010,07,15,16,18,20.90
2010,07,15,16,19,20.90
2010,07,15,16,20,16.10
2010,07,15,16,21,22.50
2010,07,15,16,22,22.50
2010,07,15,16,23,20.90
2010,07,15,16,24,20.90
2010,07,15,16,25,22.50
2010,07,15,16,26,20.90
2010,07,15,16,27,17.70
2010,07,15,16,28,22.50
2010,07,15,16,29,14.50
2010,07,15,16,30,14.50
2010,07,15,16,31,17.70
2010,07,15,16,32,19.30
2010,07,15,16,33,16.10
2010,07,15,16,34,11.30
2010,07,15,16,35,11.30
2010,07,15,16,36,9.60
2010,07,15,16,37,12.90
2010,07,15,16,38,19.30
2010,07,15,16,39,14.50
2010,07,15,16,40,17.70
2010,07,15,16,41,8.10
2010,07,15,16,42,9.60
2010,07,15,16,43,8.10
2010,07,15,16,44,14.50
2010,07,15,16,45,9.60
2010,07,15,16,46,4.80
2010,07,15,16,47,4.80
2010,07,15,16,48,6.40
2010,07,15,16,49,1.60
2010,07,15,16,50,8.10
2010,07,15,16,51,4.80
2010,07,15,16,52,8.10
2010,07,15,16,53,4.80
2010,07,15,16,54,9.60
2010,07,15,16,55,4.80
2010,07,15,16,56,4.80
2010,07,15,16,57,8.10
2010,07,15,16,58,8.10
2010,07,15,16,59,8.10
2010,07,15,17,00,6.40
2010,07,15,17,01,9.60
2010,07,15,17,02,8.10
2010,07,15,17,03,14.50
2010,07,15,17,04,9.60
2010,07,15,17,05,9.60
2010,07,15,17,06,19.30
2010,07,15,17,07,19.30
2010,07,15,17,08,17.70
2010,07,15,17,09,17.70
2010,07,15,17,10,19.30
2010,07,15,17,11,19.30
2010,07,15,17,12,20.90
2010,07,15,17,13,16.10
2010,07,15,17,14,19.30
2010,07,15,17,15,8.10
2010,07,15,17,16,6.40
2010,07,15,17,17,19.30
2010,07,15,17,18,14.50
2010,07,15,17,19,11.30
2010,07,15,17,20,11.30
2010,07,15,17,21,11.30
2010,07,15,17,22,17.70
2010,07,15,17,23,25.70
2010,07,15,17,24,19.30
2010,07,15,17,25,20.90
2010,07,15,17,26,20.90
2010,07,15,17,27,17.70
2010,07,15,17,28,19.30
2010,07,15,17,29,19.30
2010,07,15,17,30,20.90
2010,07,15,17,31,24.20
2010,07,15,17,32,24.20
2010,07,15,17,33,22.50
2010,07,15,17,34,19.30
2010,07,15,17,35,16.10
2010,07,15,17,36,16.10
2010,07,15,17,37,17.70
2010,07,15,17,38,9.60
2010,07,15,17,39,16.10
2010,07,15,17,40,19.30
2010,07,15,17,41,17.70
2010,07,15,17,42,16.10
2010,07,15,17,43,16.10
2010,07,15,17,44,14.50
2010,07,15,17,45,24.20
2010,07,15,17,46,20.90
2010,07,15,17,47,16.10
2010,07,15,17,48,17.70
2010,07,15,17,49,16.10
2010,07,15,17,50,19.30
2010,07,15,17,51,16.10
2010,07,15,17,52,12.90
2010,07,15,17,53,16.10
2010,07,15,17,54,14.50
2010,07,15,17,55,12.90
2010,07,15,17,56,20.90
2010,07,15,17,57,16.10
2010,07,15,17,58,12.90
2010,07,15,17,59,9.60
2010,07,15,18,00,6.40
2010,07,15,18,01,11.30
2010,07,15,18,02,11.30
2010,07,15,18,03,11.30
2010,07,15,18,04,14.50
2010,07,15,18,05,11.30
2010,07,15,18,06,9.60
2010,07,15,18,07,4.80
2010,07,15,18,08,4.80
2010,07,15,18,09,8.10
2010,07,15,18,10,14.50
2010,07,15,18,11,14.50
2010,07,15,18,12,8.10
2010,07,15,18,13,19.30
2010,07,15,18,14,9.60
2010,07,15,18,15,11.30
2010,07,15,18,16,9.60
2010,07,15,18,17,9.60
2010,07,15,18,18,14.50
2010,07,15,18,19,11.30
2010,07,15,18,20,11.30
2010,07,15,18,21,14.50
2010,07,15,18,22,14.50
2010,07,15,18,23,8.10
2010,07,15,18,24,11.30
2010,07,15,18,25,9.60
2010,07,15,18,26,9.60
2010,07,15,18,27,12.90
2010,07,15,18,28,9.60
2010,07,15,18,29,16.10
2010,07,15,18,30,12.90
2010,07,15,18,31,14.50
2010,07,15,18,32,9.60
2010,07,15,18,33,11.30
2010,07,15,18,34,11.30
2010,07,15,18,35,16.10
2010,07,15,18,36,11.30
2010,07,15,18,37,11.30
2010,07,15,18,38,11.30
2010,07,15,18,39,9.60
2010,07,15,18,40,11.30
2010,07,15,18,41,14.50
2010,07,15,18,42,12.90
2010,07,15,18,43,16.10
2010,07,15,18,44,14.50
2010,07,15,18,45,14.50
2010,07,15,18,46,9.60
2010,07,15,18,47,9.60
2010,07,15,18,48,14.50
2010,07,15,18,49,9.60
2010,07,15,18,50,9.60
2010,07,15,18,51,16.10
2010,07,15,18,52,8.10
2010,07,15,18,53,11.30
2010,07,15,18,54,11.30
2010,07,15,18,55,8.10
2010,07,15,18,56,8.10
2010,07,15,18,57,11.30
2010,07,15,18,58,11.30
2010,07,15,18,59,9.60
2010,07,15,19,00,6.40
2010,07,15,19,01,1.60
2010,07,15,19,02,4.80
2010,07,15,19,03,4.80
2010,07,15,19,04,3.20
2010,07,15,19,05,6.40
2010,07,15,19,06,14.50
2010,07,15,19,07,9.60
2010,07,15,19,08,9.60
2010,07,15,19,09,8.10
2010,07,15,19,10,11.30
2010,07,15,19,11,3.20
2010,07,15,19,12,6.40
2010,07,15,19,13,8.10
2010,07,15,19,14,3.20
2010,07,15,19,15,4.80
2010,07,15,19,16,16.10
2010,07,15,19,17,11.30
2010,07,15,19,18,12.90
2010,07,15,19,19,9.60
2010,07,15,19,20,14.50
2010,07,15,19,21,9.60
2010,07,15,19,22,12.90
2010,07,15,19,23,14.50
2010,07,15,19,24,17.70
2010,07,15,19,25,16.10
2010,07,15,19,26,12.90
2010,07,15,19,27,16.10
2010,07,15,19,28,9.60
2010,07,15,19,29,6.40
2010,07,15,19,30,8.10
2010,07,15,19,31,16.10
2010,07,15,19,32,9.60
2010,07,15,19,33,9.60
2010,07,15,19,34,3.20
2010,07,15,19,35,12.90
2010,07,15,19,36,9.60
2010,07,15,19,37,4.80
2010,07,15,19,38,3.20
2010,07,15,19,39,9.60
2010,07,15,19,40,8.10
2010,07,15,19,41,9.60
2010,07,15,19,42,11.30
2010,07,15,19,43,4.80
2010,07,15,19,44,4.80
2010,07,15,19,45,9.60
2010,07,15,19,46,11.30
2010,07,15,19,47,9.60
2010,07,15,19,48,9.60
2010,07,15,19,49,11.30
2010,07,15,19,50,6.40
2010,07,15,19,51,9.60
2010,07,15,19,52,11.30
2010,07,15,19,53,8.10
2010,07,15,19,54,8.10
2010,07,15,19,55,4.80
2010,07,15,19,56,8.10
2010,07,15,19,57,14.50
2010,07,15,19,58,8.10
2010,07,15,19,59,11.30
2010,07,15,20,00,8.10
2010,07,15,20,01,8.10
2010,07,15,20,02,9.60
2010,07,15,20,03,4.80
2010,07,15,20,04,3.20
2010,07,15,20,05,1.60
2010,07,15,20,06,4.80
2010,07,15,20,07,1.60
2010,07,15,20,08,1.60
2010,07,15,20,09,1.60
2010,07,15,20,10,4.80
2010,07,15,20,11,6.40
2010,07,15,20,12,6.40
2010,07,15,20,13,6.40
2010,07,15,20,14,6.40
2010,07,15,20,15,6.40
2010,07,15,20,16,4.80
2010,07,15,20,17,14.50
2010,07,15,20,18,11.30
2010,07,15,20,19,12.90
2010,07,15,20,20,11.30
2010,07,15,20,21,8.10
2010,07,15,20,22,1.60
2010,07,15,20,23,4.80
2010,07,15,20,24,6.40
2010,07,15,20,25,8.10
2010,07,15,20,26,4.80
2010,07,15,20,27,8.10
2010,07,15,20,28,1.60
2010,07,15,20,30,3.20
2010,07,15,20,31,1.60
2010,07,15,20,32,1.60
2010,07,15,20,33,3.20
2010,07,15,20,34,3.20
2010,07,15,20,35,1.60
2010,07,15,20,36,1.60
2010,07,15,20,37,1.60
2010,07,15,20,38,3.20
2010,07,15,20,40,6.40
2010,07,15,20,41,8.10
2010,07,15,20,42,9.60
2010,07,15,20,43,1.60
2010,07,15,20,44,1.60
2010,07,15,20,45,3.20
2010,07,15,20,46,3.20
2010,07,15,20,47,4.80
2010,07,15,20,48,1.60
2010,07,15,20,49,6.40
2010,07,15,20,50,4.80
2010,07,15,20,51,3.20
2010,07,15,20,52,4.80
2010,07,15,20,57,1.60
2010,07,15,20,58,1.60
2010,07,15,20,59,1.60
2010,07,15,21,00,1.60
2010,07,15,21,01,1.60
2010,07,15,21,03,1.60
2010,07,15,21,05,1.60
2010,07,15,21,06,3.20
2010,07,15,21,09,1.60
2010,07,15,21,13,1.60
2010,07,15,21,15,1.60
2010,07,15,21,16,1.60
2010,07,15,21,18,1.60
2010,07,15,21,20,1.60
2010,07,15,21,21,6.40
2010,07,15,21,22,6.40
2010,07,15,21,23,1.60
2010,07,15,21,24,1.60
2010,07,15,21,25,1.60
2010,07,15,21,26,1.60
2010,07,15,21,27,1.60
2010,07,15,21,28,3.20
2010,07,15,21,30,1.60
2010,07,15,21,31,3.20
2010,07,15,21,33,1.60
2010,07,15,21,34,1.60
2010,07,15,21,35,4.80
2010,07,15,21,36,6.40
2010,07,15,21,38,1.60
2010,07,15,21,39,6.40
2010,07,15,21,40,4.80
2010,07,15,21,41,1.60
2010,07,15,21,46,1.60
2010,07,15,21,47,3.20
2010,07,15,21,48,1.60
2010,07,15,21,49,1.60
2010,07,15,21,50,1.60
2010,07,15,21,51,1.60
2010,07,15,21,52,1.60
2010,07,15,21,53,1.60
2010,07,15,21,54,1.60
2010,07,15,21,56,1.60
2010,07,15,21,57,3.20
2010,07,15,21,58,1.60